(459820) = 2007 OA3 = 2013 SA40

Discovered at Socorro on 2007-07-16 by LINEAR.

Orbit

Orbit type: Main Belt

Note: WebGL enabled browser required.

epoch2023-02-25.0
epoch JD2460000.5
perihelion date2018-10-09.91914
perihelion JD2458401.41914
argument of perihelion (°)17.93935
ascending node (°)303.44774
inclination (°)17.55924
eccentricity0.2238026
perihelion distance (AU)2.4273631
Tisserand w.r.t. Jupiter3.1
ΔV w.r.t. Earth (km/sec)11.1
semimajor axis (AU)3.1272498
mean anomaly (°)284.99052
mean daily motion (°/day)0.17822150
aphelion distance (AU)3.827
period (years)5.53
P-vector [x]0.76940502
P-vector [y]-0.61678055
P-vector [z]-0.16612547
Q-vector [x]0.58706799
Q-vector [y]0.58031321
Q-vector [z]0.56443578
absolute magnitude16.02
phase slope0.15
uncertainty0
referenceMPO 745323
observations used134
oppositions11
arc length (days)6698
first opposition used2005
last opposition used2023
residual rms (arc-secs)0.69
perturbers coarse indicatorM-v
perturbers precise indicator003Ek
first observation date used2005-02-13.0
last observation date used2023-06-17.0
computer nameMPCLINUX
JD of orbit computation2457425.693113
perihelion JD uncertainty (days)2.7505E-04
argument of perihelion uncertainty (°)3.4706E-05
ascending node uncertainty (°)2.2282E-05
inclination uncertainty (°)1.0847E-05
eccentricity uncertainty 1.7055E-07
perihelion distance uncertainty (AU)4.6490E-07
Minimum Orbit Intersection Distances (in AU)
for orbit epoch: 2460000.5, reference: E2023-M35
Mercury2.01257
Venus1.70812
Earth1.41824
Mars1.04837
Jupiter1.49851
Saturn5.36351
Uranus14.7032
Neptune26.5534

Observations

135 total observations over interval: 2005 02 13.07474 – 2023 06 17.311983
These data are available for download (format description).

